Regional Weather Roundup
Issued by NWS Sterling, VA

Home | Current Version | Previous Version | Text Only | Print | Product List | Glossary Off
Versions: 1 2 3 4 5 6 7 8 9 10 11 12 13 14 15 16 17 18 19 20 21 22 23 24 25 26 27 28 29 30 31 32 33 34 35 36 37 38 39 40 41 42 43 44 45 46 47 48 49 50

000
ASUS41 KLWX 121510
RWRLWX

REGIONAL WEATHER ROUNDUP
NATIONAL WEATHER SERVICE BALTIMORE MD/WASHINGTON DC
1000 AM EST FRI FEB 12 2016

Note: "FAIR" indicates few or no clouds below 12,000 feet
with no significant weather and/or obstructions to visibility.
 TC=TEMPERATURE CELSIUS

 * =Non NWS site. Station does not report precipitation (e.g. rain,
    snow, etc.), thunder, or fog.

DCZ001-MDZ009-015-VAZ040>042-051-053>054-121600-
WASHINGTON METRO

CITY           SKY/WX    TMP DP  RH WIND       PRES   REMARKS
WASHINGTON NAT CLOUDY    24   5  44 S7        30.30F
DULLES         PTSUNNY   24   5  44 VRB3      30.26R
ANDREWS AFB    MOSUNNY   23   2  39 VRB1      30.27F
FT BELVOIR     FAIR      25   4  40 CALM      30.29F
QUANTICO       CLOUDY    26  10  50 S9        30.32F WCI  17
COLLEGE PARK*  FAIR      27   1  33 CALM      30.28F
LEESBURG*      CLOUDY    27  10  50 S5        30.26F
GAITHERSBURG*  MOSUNNY   19   3  49 CALM      30.28F

$$

MDZ006>007-011-014-121600-
BALTIMORE METRO

CITY           SKY/WX    TMP DP  RH WIND       PRES   REMARKS
BWI AIRPORT    PTSUNNY   22   2  42 S6        30.28F
MD SCIENCE CTR   N/A     24   2  38 MISG      30.29R
MARTIN STATE   PTSUNNY   23   7  50 W6        30.32F
ANNAPOLIS      MOSUNNY   22   2  42 CALM      30.30F
FORT MEADE*    MOSUNNY   23   3  42 CALM      30.31F

$$

MDZ012-015-019>023-121600-
MARYLAND EASTERN SHORE

CITY           SKY/WX    TMP DP  RH WIND       PRES   REMARKS
OCEAN CITY     SUNNY     24   3  40 CALM      30.31F
SALISBURY      SUNNY     23   5  46 CALM      30.31S
BAY BRIDGE AP*   N/A     23   3  42 CALM      30.30F
CAMBRIDGE*     SUNNY     27   7  43 W3        30.29F
EASTON*        MOSUNNY   25   7  46 CALM      30.34F

$$

MDZ017>025-121600-
SOUTHERN MARYLAND

CITY           SKY/WX    TMP DP  RH WIND       PRES   REMARKS
PATUXENT RIVER PTSUNNY   25   2  37 CALM      30.31F
ST INIGOES     MOSUNNY   25   2  37 CALM      30.31F
LEONARDTOWN*     N/A     25   3  39 CALM      30.31F

$$

MDZ003>005-121600-
NORTH CENTRAL MARYLAND

CITY           SKY/WX    TMP DP  RH WIND       PRES   REMARKS
FREDERICK*     PTSUNNY   21   9  58 SW5       30.29F
HAGERSTOWN APT PTSUNNY   17   7  64 E5        30.21F
WESTMINSTER*   MOSUNNY   18   9  68 SW5       30.21F

$$

MDZ501>502-121600-
WESTERN MARYLAND

CITY           SKY/WX    TMP DP  RH WIND       PRES   REMARKS
OAKLAND*       CLOUDY     9   3  78 SW6       29.97F
CUMBERLAND*    MOSUNNY   19   9  63 CALM      30.23F

$$

VAZ025>031-121600-
SHENANDOAH VALLEY

CITY           SKY/WX    TMP DP  RH WIND       PRES   REMARKS
WINCHESTER*    CLOUDY    23   9  54 S6        30.20F
FRONT ROYAL*   CLOUDY    23   9  54 SE6       30.19F
LURAY*         CLOUDY    23   9  54 CALM      30.18F
NEW MARKET*    CLOUDY    22   7  53 W5        30.17F
STAUNTON*      PTSUNNY   27  10  49 S6        30.18F
WAYNESBORO*    CLOUDY    23   4  43 SE3       30.14F

$$

WVZ021-048>050-054>055-121600-
EASTERN WEST VIRGINIA PANHANDLE

CITY           SKY/WX    TMP DP  RH WIND       PRES   REMARKS
MARTINSBURG    FAIR      21   7  54 SE6       30.22F
PETERSBURG*    PTSUNNY   18   8  66 CALM      30.17F

$$

VAZ036>039-050-121600-
CENTRAL FOOTHILLS

CITY           SKY/WX    TMP DP  RH WIND       PRES   REMARKS
CHARLOTTESVILL FAIR      26   4  38 S6        30.22F
CULPEPER*      CLOUDY    24   7  49 S6        30.27F
ORANGE*        CLOUDY    27   7  43 SE5       30.26F
GORDONSVILLE*  CLOUDY    25   5  41 SW6       30.24F
WARRENTON*     PTSUNNY   26  12  55 S5        30.26F

$$

VAZ055>057-121600-
NORTH AND CENTRAL PIEDMONT

CITY           SKY/WX    TMP DP  RH WIND       PRES   REMARKS
FREDERICKSBRG* PTSUNNY   25   7  45 SE8       30.29F WCI  16
STAFFORD*      PTSUNNY   24   5  44 SE8       30.33F WCI  16

$$

NCZ024-NYZ072-PAZ021-071-VAZ022-071-121600-
OTHER REGIONAL OBSERVATIONS

CITY           SKY/WX    TMP DP  RH WIND       PRES   REMARKS
NEW YORK CITY  SUNNY     19  -1  41 VRB5      30.25F
PHILADELPHIA   PTSUNNY   21  -1  38 VRB3      30.29F
PITTSBURGH     CLOUDY    15   7  70 S10       30.11F WCI   2
ROANOKE        PTSUNNY   25   6  44 SE7       30.20F
RICHMOND       CLOUDY    24   5  44 E6        30.29F
RALEIGH        CLOUDY    29   8  41 E8        30.25S WCI  21

$$

ANZ530>537-121600-
MARINE OBSERVATIONS

STATION/POSITION TIME  TEMP    WIND        PRES
                       AIR SEA DIR/SP/G
                 (UTC) (F)     (DEG/KT/KT) (MB)
THOMAS PT LIGHT  1500   21 36  220/  3/  4 1026.8F
BALT KEY BRIDGE  1400   20     230/  5/  7 1026.7F
COVE POINT       1400   22     330/  4/  7 1027.3F
LEWISETTA        1400   24 37  360/  4/  5 1026.8S
SOLOMONS ISLAND  1400   23 39  360/  3/  4   N/A
PINEY POINT      1400           CALM  /  3   N/A

$$




USA.gov is the U.S. government's official web portal to all federal, state and local government web resources and services.